Time,TemperatureF,DewpointF,PressureIn,WindDirection,WindDirectionDegrees,WindSpeedMPH,WindSpeedGustMPH,Humidity,HourlyPrecipIn,Conditions,Clouds,dailyrainin,SoftwareType,DateUTC
2013-05-12 00:00:00,49.6,46.0,25.94,SSW,202,7.2,7.5,87,0.00,,,0.00,Rainwise IP-100,2013-05-12 06:00:00,
2013-05-12 00:05:00,49.7,46.0,25.94,SSE,157,4.4,9.1,87,0.00,,,0.00,Rainwise IP-100,2013-05-12 06:05:00,
2013-05-12 00:10:00,49.9,46.0,25.94,SSW,202,7.2,9.6,86,0.00,,,0.00,Rainwise IP-100,2013-05-12 06:10:00,
2013-05-12 00:15:00,50.0,46.0,25.94,South,180,6.1,9.3,85,0.00,,,0.00,Rainwise IP-100,2013-05-12 06:15:00,
2013-05-12 00:20:00,50.0,46.0,25.94,South,180,4.4,8.4,85,0.00,,,0.00,Rainwise IP-100,2013-05-12 06:20:00,
2013-05-12 00:25:00,50.0,46.0,25.94,SSW,202,5.4,7.0,85,0.00,,,0.00,Rainwise IP-100,2013-05-12 06:25:00,
2013-05-12 00:30:00,49.8,46.0,25.94,South,180,4.2,6.8,85,0.00,,,0.00,Rainwise IP-100,2013-05-12 06:30:00,
2013-05-12 00:35:00,49.6,46.0,25.94,South,180,3.7,7.0,86,0.00,,,0.00,Rainwise IP-100,2013-05-12 06:35:00,
2013-05-12 00:40:00,49.4,45.0,25.94,South,180,3.7,7.2,86,0.00,,,0.00,Rainwise IP-100,2013-05-12 06:40:00,
2013-05-12 00:45:00,49.2,45.0,25.94,South,180,5.4,7.5,86,0.00,,,0.00,Rainwise IP-100,2013-05-12 06:45:00,
2013-05-12 00:50:00,49.1,45.0,25.93,SSW,202,7.5,7.5,87,0.00,,,0.00,Rainwise IP-100,2013-05-12 06:50:00,
2013-05-12 00:55:00,49.4,45.0,25.94,SSW,202,6.3,8.2,86,0.00,,,0.00,Rainwise IP-100,2013-05-12 06:55:00,
2013-05-12 01:00:00,49.8,46.0,25.94,South,180,3.3,6.3,85,0.00,,,0.00,Rainwise IP-100,2013-05-12 07:00:00,
2013-05-12 01:05:00,49.8,46.0,25.93,SSW,202,4.2,7.2,85,0.00,,,0.00,Rainwise IP-100,2013-05-12 07:05:00,
2013-05-12 01:10:00,49.6,46.0,25.93,SSW,202,3.5,6.3,85,0.00,,,0.00,Rainwise IP-100,2013-05-12 07:10:00,
2013-05-12 01:15:00,49.4,45.0,25.93,SSW,202,4.2,5.6,85,0.00,,,0.00,Rainwise IP-100,2013-05-12 07:15:00,
2013-05-12 01:20:00,49.2,45.0,25.92,South,180,3.0,6.1,86,0.00,,,0.00,Rainwise IP-100,2013-05-12 07:20:00,
2013-05-12 01:25:00,49.1,45.0,25.93,SSW,202,3.7,4.2,86,0.00,,,0.00,Rainwise IP-100,2013-05-12 07:25:00,
2013-05-12 01:30:00,49.0,45.0,25.92,SSW,202,3.3,4.7,86,0.00,,,0.00,Rainwise IP-100,2013-05-12 07:30:00,
2013-05-12 01:35:00,48.8,45.0,25.92,SW,225,2.3,5.1,87,0.00,,,0.00,Rainwise IP-100,2013-05-12 07:35:00,
2013-05-12 01:40:00,48.6,45.0,25.92,SW,225,3.5,5.1,87,0.00,,,0.00,Rainwise IP-100,2013-05-12 07:40:00,
2013-05-12 01:45:00,48.5,45.0,25.92,SSW,202,2.1,6.5,87,0.00,,,0.00,Rainwise IP-100,2013-05-12 07:45:00,
2013-05-12 01:50:00,48.4,45.0,25.92,SSW,202,2.6,4.7,87,0.00,,,0.00,Rainwise IP-100,2013-05-12 07:50:00,
2013-05-12 01:55:00,48.2,45.0,25.92,SSW,202,2.8,4.7,87,0.00,,,0.00,Rainwise IP-100,2013-05-12 07:55:00,
2013-05-12 02:00:00,48.2,45.0,25.91,SSW,202,1.4,5.8,88,0.00,,,0.00,Rainwise IP-100,2013-05-12 08:00:00,
2013-05-12 02:05:00,48.2,45.0,25.91,SSW,202,3.3,5.6,88,0.00,,,0.00,Rainwise IP-100,2013-05-12 08:05:00,
2013-05-12 02:10:00,48.2,45.0,25.91,SSW,202,3.3,5.1,87,0.00,,,0.00,Rainwise IP-100,2013-05-12 08:10:00,
2013-05-12 02:15:00,48.2,45.0,25.91,SSW,202,3.7,5.6,87,0.00,,,0.00,Rainwise IP-100,2013-05-12 08:15:00,
2013-05-12 02:20:00,48.2,45.0,25.91,SW,225,1.9,4.7,87,0.00,,,0.00,Rainwise IP-100,2013-05-12 08:20:00,
2013-05-12 02:25:00,48.1,45.0,25.90,SSW,202,3.3,6.3,87,0.00,,,0.00,Rainwise IP-100,2013-05-12 08:25:00,
2013-05-12 02:30:00,48.1,45.0,25.90,SSW,202,3.5,4.4,87,0.00,,,0.00,Rainwise IP-100,2013-05-12 08:30:00,
2013-05-12 02:35:00,47.9,45.0,25.90,SSW,202,2.3,4.2,87,0.00,,,0.00,Rainwise IP-100,2013-05-12 08:35:00,
2013-05-12 02:40:00,47.8,45.0,25.90,SSW,202,2.1,3.7,88,0.00,,,0.00,Rainwise IP-100,2013-05-12 08:40:00,
2013-05-12 02:45:00,47.7,44.0,25.90,SSW,202,0.0,2.6,88,0.00,,,0.00,Rainwise IP-100,2013-05-12 08:45:00,
2013-05-12 02:50:00,47.5,44.0,25.90,SSW,202,0.0,1.4,88,0.00,,,0.00,Rainwise IP-100,2013-05-12 08:50:00,
2013-05-12 02:55:00,47.1,43.0,25.90,SSW,202,0.0,1.2,88,0.00,,,0.00,Rainwise IP-100,2013-05-12 08:55:00,
2013-05-12 03:00:00,46.8,43.0,25.89,SSW,202,0.0,2.1,89,0.00,,,0.00,Rainwise IP-100,2013-05-12 09:00:00,
2013-05-12 03:05:00,46.6,43.0,25.89,SSW,202,0.0,1.6,89,0.00,,,0.00,Rainwise IP-100,2013-05-12 09:05:00,
2013-05-12 03:10:00,46.3,43.0,25.89,SSW,202,0.0,0.0,89,0.00,,,0.00,Rainwise IP-100,2013-05-12 09:10:00,
2013-05-12 03:15:00,46.0,43.0,25.89,SSW,202,0.0,1.2,89,0.00,,,0.00,Rainwise IP-100,2013-05-12 09:15:00,
2013-05-12 03:20:00,45.9,43.0,25.89,SSW,202,1.9,1.9,90,0.00,,,0.00,Rainwise IP-100,2013-05-12 09:20:00,
2013-05-12 03:25:00,46.1,43.0,25.89,SSW,202,1.6,3.7,90,0.00,,,0.00,Rainwise IP-100,2013-05-12 09:25:00,
2013-05-12 03:30:00,46.3,43.0,25.89,SSW,202,0.0,3.3,90,0.00,,,0.00,Rainwise IP-100,2013-05-12 09:30:00,
2013-05-12 03:35:00,46.4,43.0,25.89,SSW,202,1.4,2.6,90,0.00,,,0.00,Rainwise IP-100,2013-05-12 09:35:00,
2013-05-12 03:40:00,46.3,43.0,25.88,SSW,202,1.2,1.6,90,0.00,,,0.00,Rainwise IP-100,2013-05-12 09:40:00,
2013-05-12 03:45:00,46.1,43.0,25.89,WNW,292,1.6,2.6,90,0.00,,,0.00,Rainwise IP-100,2013-05-12 09:45:00,
2013-05-12 03:50:00,45.8,43.0,25.88,WNW,292,0.0,1.9,90,0.00,,,0.00,Rainwise IP-100,2013-05-12 09:50:00,
2013-05-12 03:55:00,45.2,42.0,25.88,NNW,337,1.9,4.2,90,0.00,,,0.00,Rainwise IP-100,2013-05-12 09:55:00,
2013-05-12 04:00:00,44.7,42.0,25.88,NNW,337,0.0,2.3,90,0.00,,,0.00,Rainwise IP-100,2013-05-12 10:00:00,
2013-05-12 04:05:00,44.5,43.0,25.88,NNW,337,0.0,0.0,92,0.00,,,0.00,Rainwise IP-100,2013-05-12 10:05:00,
2013-05-12 04:10:00,44.7,43.0,25.88,NNW,337,2.3,2.6,92,0.00,,,0.00,Rainwise IP-100,2013-05-12 10:10:00,
2013-05-12 04:15:00,44.7,43.0,25.88,NNW,337,1.6,3.0,92,0.00,,,0.00,Rainwise IP-100,2013-05-12 10:15:00,
2013-05-12 04:20:00,44.7,42.0,25.88,NNW,337,2.6,3.5,91,0.00,,,0.00,Rainwise IP-100,2013-05-12 10:20:00,
2013-05-12 04:25:00,44.6,42.0,25.88,NNW,337,2.3,3.0,91,0.00,,,0.00,Rainwise IP-100,2013-05-12 10:25:00,
2013-05-12 04:30:00,44.4,41.0,25.88,NW,315,2.3,3.0,91,0.00,,,0.00,Rainwise IP-100,2013-05-12 10:30:00,
2013-05-12 04:35:00,44.4,42.0,25.88,NW,315,1.9,3.0,92,0.00,,,0.00,Rainwise IP-100,2013-05-12 10:35:00,
2013-05-12 04:40:00,44.1,42.0,25.88,NW,315,0.0,2.8,92,0.00,,,0.00,Rainwise IP-100,2013-05-12 10:40:00,
2013-05-12 04:45:00,43.6,42.0,25.87,NW,315,1.6,1.9,92,0.00,,,0.00,Rainwise IP-100,2013-05-12 10:45:00,
2013-05-12 04:50:00,43.3,41.0,25.87,NNW,337,2.3,3.0,92,0.00,,,0.00,Rainwise IP-100,2013-05-12 10:50:00,
2013-05-12 04:55:00,42.9,41.0,25.88,NNW,337,2.1,3.3,93,0.00,,,0.00,Rainwise IP-100,2013-05-12 10:55:00,
2013-05-12 05:00:00,42.9,41.0,25.87,NNW,337,3.7,4.2,93,0.00,,,0.00,Rainwise IP-100,2013-05-12 11:00:00,
2013-05-12 05:05:00,43.2,41.0,25.87,NNW,337,4.4,4.9,94,0.00,,,0.00,Rainwise IP-100,2013-05-12 11:05:00,
2013-05-12 05:07:00,43.4,41.0,25.87,NNW,337,4.4,4.9,94,0.00,,,0.00,Rainwise IP-100,2013-05-12 11:07:00,
2013-05-12 05:12:00,43.7,42.0,25.87,NNW,337,5.4,5.4,94,0.00,,,0.00,Rainwise IP-100,2013-05-12 11:12:00,
2013-05-12 05:17:00,43.7,42.0,25.87,WNW,292,3.0,6.3,94,0.00,,,0.00,Rainwise IP-100,2013-05-12 11:17:00,
2013-05-12 05:22:00,43.7,42.0,25.87,NW,315,3.3,4.9,94,0.00,,,0.00,Rainwise IP-100,2013-05-12 11:22:00,
2013-05-12 05:27:00,43.6,42.0,25.87,WNW,292,2.6,4.7,94,0.00,,,0.00,Rainwise IP-100,2013-05-12 11:27:00,
2013-05-12 05:32:00,43.5,42.0,25.86,WNW,292,3.3,5.6,94,0.00,,,0.00,Rainwise IP-100,2013-05-12 11:32:00,
2013-05-12 05:37:00,43.2,41.0,25.87,WNW,292,4.4,4.9,94,0.00,,,0.00,Rainwise IP-100,2013-05-12 11:37:00,
2013-05-12 05:42:00,42.9,41.0,25.87,WNW,292,6.3,6.5,94,0.00,,,0.00,Rainwise IP-100,2013-05-12 11:42:00,
2013-05-12 05:47:00,43.0,41.0,25.87,NW,315,4.2,6.8,94,0.00,,,0.00,Rainwise IP-100,2013-05-12 11:47:00,
2013-05-12 05:52:00,43.3,41.0,25.87,WNW,292,1.6,5.4,93,0.00,,,0.00,Rainwise IP-100,2013-05-12 11:52:00,
2013-05-12 05:57:00,43.2,41.0,25.86,WNW,292,2.6,3.7,93,0.00,,,0.00,Rainwise IP-100,2013-05-12 11:57:00,
2013-05-12 06:02:00,43.2,41.0,25.87,WNW,292,3.5,4.2,93,0.00,,,0.00,Rainwise IP-100,2013-05-12 12:02:00,
2013-05-12 06:07:00,43.4,41.0,25.87,WNW,292,2.3,3.5,93,0.00,,,0.00,Rainwise IP-100,2013-05-12 12:07:00,
2013-05-12 06:12:00,43.3,41.0,25.86,WNW,292,2.1,4.0,93,0.00,,,0.00,Rainwise IP-100,2013-05-12 12:12:00,
2013-05-12 06:17:00,43.1,41.0,25.87,WNW,292,1.9,2.1,93,0.00,,,0.00,Rainwise IP-100,2013-05-12 12:17:00,
2013-05-12 06:22:00,42.9,41.0,25.86,WNW,292,1.4,3.3,94,0.00,,,0.00,Rainwise IP-100,2013-05-12 12:22:00,
2013-05-12 06:27:00,43.1,41.0,25.86,WNW,292,0.0,3.3,94,0.00,,,0.00,Rainwise IP-100,2013-05-12 12:27:00,
2013-05-12 06:32:00,43.5,42.0,25.86,WNW,292,1.6,2.8,94,0.00,,,0.00,Rainwise IP-100,2013-05-12 12:32:00,
2013-05-12 06:37:00,43.8,42.0,25.86,West,270,1.9,3.5,93,0.00,,,0.00,Rainwise IP-100,2013-05-12 12:37:00,
2013-05-12 12:09:00,74.4,37.0,25.84,North,360,3.7,19.6,26,0.00,,,0.00,Rainwise IP-100,2013-05-12 18:09:00,
2013-05-12 12:14:00,74.3,38.0,25.84,NNW,337,9.1,16.8,27,0.00,,,0.00,Rainwise IP-100,2013-05-12 18:14:00,
2013-05-12 12:19:00,74.6,38.0,25.84,NNW,337,11.9,13.3,27,0.00,,,0.00,Rainwise IP-100,2013-05-12 18:19:00,
2013-05-12 12:24:00,74.8,38.0,25.84,NNW,337,8.6,16.3,26,0.00,,,0.00,Rainwise IP-100,2013-05-12 18:24:00,
2013-05-12 12:29:00,74.6,37.0,25.83,NNW,337,7.7,24.7,25,0.00,,,0.00,Rainwise IP-100,2013-05-12 18:29:00,
2013-05-12 12:34:00,74.3,36.0,25.83,NNW,337,6.3,17.0,24,0.00,,,0.00,Rainwise IP-100,2013-05-12 18:34:00,
2013-05-12 12:39:00,74.5,37.0,25.84,NNE,22,13.5,20.3,25,0.00,,,0.00,Rainwise IP-100,2013-05-12 18:39:00,
2013-05-12 12:44:00,75.0,37.0,25.84,NNW,337,8.2,16.8,25,0.00,,,0.00,Rainwise IP-100,2013-05-12 18:44:00,
2013-05-12 12:49:00,75.4,37.0,25.83,NNE,22,6.8,19.6,25,0.00,,,0.00,Rainwise IP-100,2013-05-12 18:49:00,
2013-05-12 12:54:00,75.3,37.0,25.84,North,360,6.3,16.8,25,0.00,,,0.00,Rainwise IP-100,2013-05-12 18:54:00,
2013-05-12 12:59:00,74.7,37.0,25.83,NNW,337,8.4,13.3,25,0.00,,,0.00,Rainwise IP-100,2013-05-12 18:59:00,
2013-05-12 13:04:00,74.9,37.0,25.83,NNE,22,4.4,11.7,25,0.00,,,0.00,Rainwise IP-100,2013-05-12 19:04:00,
2013-05-12 13:09:00,74.8,36.0,25.84,North,360,4.2,18.9,24,0.00,,,0.00,Rainwise IP-100,2013-05-12 19:09:00,
2013-05-12 13:14:00,74.4,36.0,25.83,NNW,337,7.9,18.2,24,0.00,,,0.00,Rainwise IP-100,2013-05-12 19:14:00,
2013-05-12 13:19:00,74.4,36.0,25.83,NNE,22,11.2,13.8,24,0.00,,,0.00,Rainwise IP-100,2013-05-12 19:19:00,
2013-05-12 13:24:00,74.9,35.0,25.83,NNW,337,12.8,20.1,23,0.00,,,0.00,Rainwise IP-100,2013-05-12 19:24:00,
2013-05-12 13:29:00,75.5,35.0,25.83,NNW,337,20.8,20.8,23,0.00,,,0.00,Rainwise IP-100,2013-05-12 19:29:00,
2013-05-12 13:34:00,75.1,35.0,25.83,NNW,337,15.2,20.8,23,0.00,,,0.00,Rainwise IP-100,2013-05-12 19:34:00,
2013-05-12 13:39:00,74.9,35.0,25.83,NNE,22,12.1,18.2,23,0.00,,,0.00,Rainwise IP-100,2013-05-12 19:39:00,
2013-05-12 13:44:00,75.3,35.0,25.83,NNW,337,5.4,15.6,22,0.00,,,0.00,Rainwise IP-100,2013-05-12 19:44:00,
2013-05-12 13:49:00,75.6,33.0,25.83,WNW,292,9.3,11.9,21,0.00,,,0.00,Rainwise IP-100,2013-05-12 19:49:00,
2013-05-12 13:54:00,75.9,35.0,25.83,NNW,337,18.2,18.2,22,0.00,,,0.00,Rainwise IP-100,2013-05-12 19:54:00,
2013-05-12 13:59:00,76.2,35.0,25.82,NNE,22,9.8,19.6,22,0.00,,,0.00,Rainwise IP-100,2013-05-12 19:59:00,
2013-05-12 14:04:00,76.3,33.0,25.83,North,360,11.9,16.3,21,0.00,,,0.00,Rainwise IP-100,2013-05-12 20:04:00,
2013-05-12 14:09:00,76.4,33.0,25.82,NNE,22,6.8,18.2,21,0.00,,,0.00,Rainwise IP-100,2013-05-12 20:09:00,
2013-05-12 14:14:00,76.4,33.0,25.82,NNW,337,11.4,16.1,21,0.00,,,0.00,Rainwise IP-100,2013-05-12 20:14:00,
2013-05-12 14:19:00,76.2,33.0,25.82,NNE,22,10.0,17.5,21,0.00,,,0.00,Rainwise IP-100,2013-05-12 20:19:00,
2013-05-12 14:24:00,76.3,33.0,25.83,NNW,337,10.3,20.1,21,0.00,,,0.00,Rainwise IP-100,2013-05-12 20:24:00,
2013-05-12 14:29:00,76.6,33.0,25.82,NNW,337,10.7,15.9,21,0.00,,,0.00,Rainwise IP-100,2013-05-12 20:29:00,
2013-05-12 14:34:00,76.6,33.0,25.82,NNE,22,0.0,11.9,21,0.00,,,0.00,Rainwise IP-100,2013-05-12 20:34:00,
2013-05-12 14:39:00,76.3,33.0,25.82,NNW,337,13.3,13.3,21,0.00,,,0.00,Rainwise IP-100,2013-05-12 20:39:00,
2013-05-12 14:44:00,76.5,33.0,25.82,North,360,8.2,18.9,21,0.00,,,0.00,Rainwise IP-100,2013-05-12 20:44:00,
2013-05-12 14:49:00,76.8,33.0,25.82,NNE,22,7.0,14.9,20,0.00,,,0.00,Rainwise IP-100,2013-05-12 20:49:00,
2013-05-12 14:54:00,76.8,35.0,25.82,NNW,337,5.8,16.1,21,0.00,,,0.00,Rainwise IP-100,2013-05-12 20:54:00,
2013-05-12 14:59:00,77.1,35.0,25.82,NNE,22,1.9,18.2,21,0.00,,,0.00,Rainwise IP-100,2013-05-12 20:59:00,
2013-05-12 15:04:00,77.3,35.0,25.81,NW,315,5.8,15.6,21,0.00,,,0.00,Rainwise IP-100,2013-05-12 21:04:00,
2013-05-12 15:09:00,77.1,35.0,25.82,NNW,337,11.0,19.8,21,0.00,,,0.00,Rainwise IP-100,2013-05-12 21:09:00,
2013-05-12 15:14:00,76.7,35.0,25.82,NNW,337,14.5,18.9,21,0.00,,,0.00,Rainwise IP-100,2013-05-12 21:14:00,
2013-05-12 15:19:00,76.8,35.0,25.82,NW,315,7.5,20.1,21,0.00,,,0.00,Rainwise IP-100,2013-05-12 21:19:00,
2013-05-12 15:24:00,76.7,35.0,25.81,NNE,22,5.1,13.3,21,0.00,,,0.00,Rainwise IP-100,2013-05-12 21:24:00,
2013-05-12 15:29:00,76.6,33.0,25.81,NNW,337,4.0,12.1,21,0.00,,,0.00,Rainwise IP-100,2013-05-12 21:29:00,
2013-05-12 15:34:00,77.1,35.0,25.81,NNW,337,8.2,15.2,21,0.00,,,0.00,Rainwise IP-100,2013-05-12 21:34:00,
2013-05-12 15:39:00,78.0,33.0,25.81,NW,315,7.9,14.7,20,0.00,,,0.00,Rainwise IP-100,2013-05-12 21:39:00,
2013-05-12 15:44:00,77.8,32.0,25.80,WNW,292,3.7,16.8,19,0.00,,,0.00,Rainwise IP-100,2013-05-12 21:44:00,
2013-05-12 15:49:00,77.3,33.0,25.81,NW,315,11.2,14.2,20,0.00,,,0.00,Rainwise IP-100,2013-05-12 21:49:00,
2013-05-12 15:54:00,77.1,33.0,25.81,NNW,337,2.8,16.6,20,0.00,,,0.00,Rainwise IP-100,2013-05-12 21:54:00,
2013-05-12 15:59:00,76.6,32.0,25.81,WNW,292,6.3,17.0,20,0.00,,,0.00,Rainwise IP-100,2013-05-12 21:59:00,
2013-05-12 16:04:00,76.6,33.0,25.80,NNW,337,3.3,16.3,21,0.00,,,0.00,Rainwise IP-100,2013-05-12 22:04:00,
2013-05-12 16:09:00,77.2,35.0,25.81,North,360,6.3,8.4,21,0.00,,,0.00,Rainwise IP-100,2013-05-12 22:09:00,
2013-05-12 16:14:00,78.2,35.0,25.80,NNW,337,3.3,14.5,20,0.00,,,0.00,Rainwise IP-100,2013-05-12 22:14:00,
2013-05-12 16:19:00,78.6,35.0,25.80,North,360,4.4,11.2,20,0.00,,,0.00,Rainwise IP-100,2013-05-12 22:19:00,
2013-05-12 16:24:00,79.1,35.0,25.81,NNW,337,4.2,9.3,20,0.00,,,0.00,Rainwise IP-100,2013-05-12 22:24:00,
2013-05-12 16:29:00,79.6,35.0,25.80,NNW,337,3.5,5.8,20,0.00,,,0.00,Rainwise IP-100,2013-05-12 22:29:00,
2013-05-12 16:34:00,79.3,33.0,25.80,NNW,337,6.1,11.0,19,0.00,,,0.00,Rainwise IP-100,2013-05-12 22:34:00,
2013-05-12 16:39:00,78.2,35.0,25.80,NNW,337,7.7,13.3,20,0.00,,,0.00,Rainwise IP-100,2013-05-12 22:39:00,
2013-05-12 16:44:00,77.6,35.0,25.80,NNW,337,8.2,14.9,21,0.00,,,0.00,Rainwise IP-100,2013-05-12 22:44:00,
2013-05-12 16:49:00,77.9,35.0,25.80,NNW,337,5.4,14.2,21,0.00,,,0.00,Rainwise IP-100,2013-05-12 22:49:00,
2013-05-12 16:54:00,77.7,35.0,25.79,WNW,292,7.2,14.9,21,0.00,,,0.00,Rainwise IP-100,2013-05-12 22:54:00,
2013-05-12 16:59:00,76.9,35.0,25.79,NNW,337,11.0,12.4,21,0.00,,,0.00,Rainwise IP-100,2013-05-12 22:59:00,
2013-05-12 17:04:00,76.4,33.0,25.79,WNW,292,6.8,11.9,21,0.00,,,0.00,Rainwise IP-100,2013-05-12 23:04:00,
2013-05-12 17:09:00,76.6,33.0,25.79,NNE,22,4.0,7.2,21,0.00,,,0.00,Rainwise IP-100,2013-05-12 23:09:00,
2013-05-12 17:14:00,76.6,33.0,25.79,NNE,22,7.5,13.1,21,0.00,,,0.00,Rainwise IP-100,2013-05-12 23:14:00,
2013-05-12 17:19:00,76.3,35.0,25.79,NNE,22,9.8,13.1,22,0.00,,,0.00,Rainwise IP-100,2013-05-12 23:19:00,
2013-05-12 17:24:00,76.1,35.0,25.79,NNE,22,3.5,15.2,22,0.00,,,0.00,Rainwise IP-100,2013-05-12 23:24:00,
2013-05-12 17:29:00,76.1,35.0,25.79,NNE,22,10.0,11.7,22,0.00,,,0.00,Rainwise IP-100,2013-05-12 23:29:00,
2013-05-12 17:34:00,76.0,35.0,25.79,NNE,22,4.9,12.4,22,0.00,,,0.00,Rainwise IP-100,2013-05-12 23:34:00,
2013-05-12 17:39:00,75.6,35.0,25.79,ENE,67,11.0,11.0,22,0.00,,,0.00,Rainwise IP-100,2013-05-12 23:39:00,
2013-05-12 17:44:00,75.5,35.0,25.79,NE,45,6.1,12.4,22,0.00,,,0.00,Rainwise IP-100,2013-05-12 23:44:00,
2013-05-12 17:49:00,75.7,35.0,25.79,NNW,337,2.3,9.6,22,0.00,,,0.00,Rainwise IP-100,2013-05-12 23:49:00,
2013-05-12 17:54:00,76.3,35.0,25.78,NNE,22,9.8,9.8,22,0.00,,,0.00,Rainwise IP-100,2013-05-12 23:54:00,
2013-05-12 17:59:00,76.4,35.0,25.79,NNE,22,10.3,10.5,22,0.00,,,0.00,Rainwise IP-100,2013-05-12 23:59:00,
2013-05-12 18:04:00,76.4,35.0,25.79,NNW,337,9.6,13.5,22,0.00,,,0.00,Rainwise IP-100,2013-05-13 00:04:00,
2013-05-12 18:09:00,76.7,35.0,25.79,NNW,337,3.7,10.3,22,0.00,,,0.00,Rainwise IP-100,2013-05-13 00:09:00,
2013-05-12 18:14:00,76.7,35.0,25.79,NW,315,7.5,8.2,22,0.00,,,0.00,Rainwise IP-100,2013-05-13 00:14:00,
2013-05-12 18:19:00,76.3,35.0,25.78,NNE,22,9.8,9.8,22,0.00,,,0.00,Rainwise IP-100,2013-05-13 00:19:00,
2013-05-12 18:24:00,75.9,35.0,25.79,North,360,7.2,11.7,22,0.00,,,0.00,Rainwise IP-100,2013-05-13 00:24:00,
2013-05-12 18:29:00,75.6,35.0,25.79,NNE,22,6.3,10.7,22,0.00,,,0.00,Rainwise IP-100,2013-05-13 00:29:00,
2013-05-12 18:34:00,75.5,35.0,25.78,North,360,5.4,8.6,23,0.00,,,0.00,Rainwise IP-100,2013-05-13 00:34:00,
2013-05-12 18:39:00,75.8,36.0,25.79,North,360,2.1,6.3,23,0.00,,,0.00,Rainwise IP-100,2013-05-13 00:39:00,
2013-05-12 18:44:00,75.9,36.0,25.79,North,360,2.3,7.5,23,0.00,,,0.00,Rainwise IP-100,2013-05-13 00:44:00,
2013-05-12 18:49:00,75.5,36.0,25.79,NNE,22,3.3,5.6,24,0.00,,,0.00,Rainwise IP-100,2013-05-13 00:49:00,
2013-05-12 18:54:00,75.0,36.0,25.79,NNE,22,3.3,6.1,24,0.00,,,0.00,Rainwise IP-100,2013-05-13 00:54:00,
2013-05-12 18:59:00,74.7,35.0,25.79,NNE,22,1.9,3.3,23,0.00,,,0.00,Rainwise IP-100,2013-05-13 00:59:00,
2013-05-12 19:04:00,74.6,35.0,25.79,NNE,22,1.4,2.6,23,0.00,,,0.00,Rainwise IP-100,2013-05-13 01:04:00,
2013-05-12 19:09:00,74.5,36.0,25.78,NNE,22,0.0,1.9,24,0.00,,,0.00,Rainwise IP-100,2013-05-13 01:09:00,
2013-05-12 19:14:00,74.4,36.0,25.79,NNE,22,0.0,0.0,24,0.00,,,0.00,Rainwise IP-100,2013-05-13 01:14:00,
2013-05-12 19:19:00,74.3,36.0,25.79,NNE,22,0.0,0.0,24,0.00,,,0.00,Rainwise IP-100,2013-05-13 01:19:00,
2013-05-12 19:24:00,73.9,36.0,25.79,NNE,22,0.0,0.0,25,0.00,,,0.00,Rainwise IP-100,2013-05-13 01:24:00,
2013-05-12 19:29:00,73.6,37.0,25.78,NNE,22,0.0,0.0,26,0.00,,,0.00,Rainwise IP-100,2013-05-13 01:29:00,
2013-05-12 19:34:00,73.2,37.0,25.79,ENE,67,2.6,2.8,27,0.00,,,0.00,Rainwise IP-100,2013-05-13 01:34:00,
2013-05-12 19:39:00,72.8,37.0,25.79,East,90,2.6,3.0,27,0.00,,,0.00,Rainwise IP-100,2013-05-13 01:39:00,
2013-05-12 19:44:00,72.6,37.0,25.79,East,90,3.0,4.4,27,0.00,,,0.00,Rainwise IP-100,2013-05-13 01:44:00,
2013-05-12 19:49:00,72.4,37.0,25.79,East,90,2.8,3.7,27,0.00,,,0.00,Rainwise IP-100,2013-05-13 01:49:00,
2013-05-12 19:54:00,72.1,36.0,25.78,ESE,112,2.8,4.2,27,0.00,,,0.00,Rainwise IP-100,2013-05-13 01:54:00,
2013-05-12 19:59:00,71.6,37.0,25.79,ESE,112,3.0,4.0,28,0.00,,,0.00,Rainwise IP-100,2013-05-13 01:59:00,
2013-05-12 20:05:00,71.3,37.0,25.79,ESE,112,3.3,4.2,28,0.00,,,0.00,Rainwise IP-100,2013-05-13 02:05:00,
2013-05-12 20:10:00,71.2,37.0,25.79,SE,135,1.6,4.9,28,0.00,,,0.00,Rainwise IP-100,2013-05-13 02:10:00,
2013-05-12 20:15:00,71.1,36.0,25.79,SE,135,2.3,3.3,28,0.00,,,0.00,Rainwise IP-100,2013-05-13 02:15:00,
2013-05-12 20:20:00,70.6,37.0,25.79,SSE,157,2.1,2.8,29,0.00,,,0.00,Rainwise IP-100,2013-05-13 02:20:00,
2013-05-12 20:25:00,70.1,37.0,25.79,SSE,157,3.3,3.7,30,0.00,,,0.00,Rainwise IP-100,2013-05-13 02:25:00,
2013-05-12 20:30:00,69.8,38.0,25.79,SSE,157,1.9,3.5,32,0.00,,,0.00,Rainwise IP-100,2013-05-13 02:30:00,
2013-05-12 20:35:00,69.6,39.0,25.79,SSE,157,2.8,3.7,33,0.00,,,0.00,Rainwise IP-100,2013-05-13 02:35:00,
2013-05-12 20:40:00,69.5,39.0,25.79,SSE,157,3.0,3.7,33,0.00,,,0.00,Rainwise IP-100,2013-05-13 02:40:00,
2013-05-12 20:45:00,69.1,39.0,25.79,SSE,157,4.0,4.4,34,0.00,,,0.00,Rainwise IP-100,2013-05-13 02:45:00,
2013-05-12 20:50:00,68.6,40.0,25.79,SSE,157,2.8,4.2,35,0.00,,,0.00,Rainwise IP-100,2013-05-13 02:50:00,
2013-05-12 20:55:00,68.6,39.0,25.79,SSE,157,4.0,4.4,34,0.00,,,0.00,Rainwise IP-100,2013-05-13 02:55:00,
2013-05-12 21:00:00,68.5,39.0,25.80,SSE,157,3.0,4.7,34,0.00,,,0.00,Rainwise IP-100,2013-05-13 03:00:00,
2013-05-12 21:05:00,68.2,39.0,25.80,SSE,157,3.3,4.7,35,0.00,,,0.00,Rainwise IP-100,2013-05-13 03:05:00,
2013-05-12 21:10:00,67.8,40.0,25.80,South,180,2.3,4.7,36,0.00,,,0.00,Rainwise IP-100,2013-05-13 03:10:00,
2013-05-12 21:15:00,67.5,40.0,25.80,South,180,3.0,4.7,37,0.00,,,0.00,Rainwise IP-100,2013-05-13 03:15:00,
2013-05-12 21:20:00,67.0,41.0,25.80,SSW,202,2.3,4.4,39,0.00,,,0.00,Rainwise IP-100,2013-05-13 03:20:00,
2013-05-12 21:25:00,66.8,41.0,25.80,SSE,157,3.3,4.7,39,0.00,,,0.00,Rainwise IP-100,2013-05-13 03:25:00,
2013-05-12 21:30:00,67.0,40.0,25.81,SSE,157,2.8,4.0,38,0.00,,,0.00,Rainwise IP-100,2013-05-13 03:30:00,
2013-05-12 21:35:00,67.1,40.0,25.81,SSE,157,3.0,4.2,38,0.00,,,0.00,Rainwise IP-100,2013-05-13 03:35:00,
2013-05-12 21:40:00,67.0,40.0,25.80,SSE,157,2.6,4.0,37,0.00,,,0.00,Rainwise IP-100,2013-05-13 03:40:00,
2013-05-12 21:45:00,66.9,40.0,25.81,South,180,2.8,4.4,37,0.00,,,0.00,Rainwise IP-100,2013-05-13 03:45:00,
2013-05-12 21:50:00,66.9,40.0,25.81,SSW,202,3.0,4.4,37,0.00,,,0.00,Rainwise IP-100,2013-05-13 03:50:00,
2013-05-12 21:55:00,66.8,39.0,25.81,SSW,202,2.8,4.4,37,0.00,,,0.00,Rainwise IP-100,2013-05-13 03:55:00,
2013-05-12 22:00:00,66.4,40.0,25.81,SSW,202,4.0,4.4,39,0.00,,,0.00,Rainwise IP-100,2013-05-13 04:00:00,
2013-05-12 22:01:00,66.3,40.0,25.81,SSW,202,3.0,4.4,39,0.00,,,0.00,Rainwise IP-100,2013-05-13 04:01:00,
2013-05-12 22:06:00,66.3,40.0,25.81,South,180,3.7,4.4,38,0.00,,,0.00,Rainwise IP-100,2013-05-13 04:06:00,
2013-05-12 22:11:00,66.5,40.0,25.81,South,180,2.3,4.4,38,0.00,,,0.00,Rainwise IP-100,2013-05-13 04:11:00,
2013-05-12 22:16:00,66.3,40.0,25.80,South,180,4.0,4.2,38,0.00,,,0.00,Rainwise IP-100,2013-05-13 04:16:00,
2013-05-12 22:21:00,66.1,40.0,25.81,SSW,202,2.3,5.6,39,0.00,,,0.00,Rainwise IP-100,2013-05-13 04:21:00,
2013-05-12 22:26:00,65.6,40.0,25.81,SSW,202,3.5,4.0,40,0.00,,,0.00,Rainwise IP-100,2013-05-13 04:26:00,
2013-05-12 22:31:00,65.2,40.0,25.81,SSW,202,3.0,5.1,41,0.00,,,0.00,Rainwise IP-100,2013-05-13 04:31:00,
2013-05-12 22:36:00,64.9,41.0,25.81,SSW,202,2.3,7.5,42,0.00,,,0.00,Rainwise IP-100,2013-05-13 04:36:00,
2013-05-12 22:41:00,64.5,41.0,25.80,SSW,202,3.7,7.7,43,0.00,,,0.00,Rainwise IP-100,2013-05-13 04:41:00,
2013-05-12 22:46:00,64.2,41.0,25.81,SSW,202,5.1,6.8,44,0.00,,,0.00,Rainwise IP-100,2013-05-13 04:46:00,
2013-05-12 22:51:00,64.0,42.0,25.81,SW,225,2.8,5.8,45,0.00,,,0.00,Rainwise IP-100,2013-05-13 04:51:00,
2013-05-12 22:56:00,64.0,42.0,25.81,SW,225,6.5,6.8,45,0.00,,,0.00,Rainwise IP-100,2013-05-13 04:56:00,
2013-05-12 23:00:00,63.9,42.0,25.81,SW,225,3.5,6.5,45,0.00,,,0.00,Rainwise IP-100,2013-05-13 05:00:00,
2013-05-12 23:05:00,63.6,42.0,25.81,SW,225,2.8,6.1,46,0.00,,,0.00,Rainwise IP-100,2013-05-13 05:05:00,
2013-05-12 23:10:00,63.4,43.0,25.81,SSE,157,3.7,5.1,47,0.00,,,0.00,Rainwise IP-100,2013-05-13 05:10:00,
2013-05-12 23:15:00,62.9,43.0,25.81,SSW,202,2.6,5.4,49,0.00,,,0.00,Rainwise IP-100,2013-05-13 05:15:00,
2013-05-12 23:20:00,62.4,44.0,25.81,South,180,2.8,5.1,51,0.00,,,0.00,Rainwise IP-100,2013-05-13 05:20:00,
2013-05-12 23:25:00,61.8,44.0,25.82,ESE,112,2.1,7.5,52,0.00,,,0.00,Rainwise IP-100,2013-05-13 05:25:00,
2013-05-12 23:30:00,61.3,45.0,25.81,South,180,2.6,3.7,54,0.00,,,0.00,Rainwise IP-100,2013-05-13 05:30:00,
2013-05-12 23:35:00,61.5,45.0,25.82,SSW,202,1.9,3.5,54,0.00,,,0.00,Rainwise IP-100,2013-05-13 05:35:00,
2013-05-12 23:40:00,61.7,44.0,25.82,SSW,202,1.2,4.0,53,0.00,,,0.00,Rainwise IP-100,2013-05-13 05:40:00,
2013-05-12 23:45:00,61.9,44.0,25.81,South,180,2.8,4.0,52,0.00,,,0.00,Rainwise IP-100,2013-05-13 05:45:00,
2013-05-12 23:50:00,62.1,44.0,25.81,SSW,202,2.6,4.7,52,0.00,,,0.00,Rainwise IP-100,2013-05-13 05:50:00,
2013-05-12 23:55:00,61.9,45.0,25.82,South,180,3.0,3.7,53,0.00,,,0.00,Rainwise IP-100,2013-05-13 05:55:00,